Time,TemperatureF,DewpointF,PressureIn,WindDirection,WindDirectionDegrees,WindSpeedMPH,WindSpeedGustMPH,Humidity,HourlyPrecipIn,Conditions,Clouds,dailyrainin,SoftwareType,DateUTC
2013-03-21 00:00:00,28.5,26.2,29.69,WSW,257,0.0,5.0,91,0.00,,SCT110,0.00,VWS V14.00,2013-03-21 04:00:00,
2013-03-21 00:05:00,28.5,26.2,29.69,SSW,200,3.0,8.0,91,0.00,,BKN070,0.00,VWS V14.00,2013-03-21 04:05:00,
2013-03-21 00:10:00,28.6,26.6,29.69,WSW,246,1.0,8.0,92,0.00,,BKN070,0.00,VWS V14.00,2013-03-21 04:10:00,
2013-03-21 00:15:00,28.5,26.5,29.69,WSW,246,0.0,8.0,92,0.00,,BKN070,0.00,VWS V14.00,2013-03-21 04:15:00,
2013-03-21 00:20:00,28.4,26.4,29.69,SW,229,0.0,8.0,92,0.00,,BKN070,0.00,VWS V14.00,2013-03-21 04:20:00,
2013-03-21 00:25:00,28.3,26.0,29.69,WSW,240,2.0,8.0,91,0.00,,BKN070,0.00,VWS V14.00,2013-03-21 04:25:00,
2013-03-21 00:30:00,28.4,26.1,29.69,NNE,15,2.0,9.0,91,0.00,,BKN070,0.00,VWS V14.00,2013-03-21 04:30:00,
2013-03-21 00:35:00,28.5,26.0,29.69,West,269,0.0,9.0,90,0.00,,BKN070,0.00,VWS V14.00,2013-03-21 04:35:00,
2013-03-21 00:40:00,28.6,26.0,29.69,WNW,291,3.0,9.0,90,0.00,,BKN070,0.00,VWS V14.00,2013-03-21 04:40:00,
2013-03-21 00:45:00,28.7,26.4,29.70,SSW,212,0.0,9.0,91,0.00,,BKN070,0.00,VWS V14.00,2013-03-21 04:45:00,
2013-03-21 00:50:00,28.7,26.1,29.70,WNW,303,3.0,9.0,90,0.00,,BKN070,0.00,VWS V14.00,2013-03-21 04:50:00,
2013-03-21 00:55:00,28.7,26.1,29.70,West,272,3.0,9.0,90,0.00,,BKN070,0.00,VWS V14.00,2013-03-21 04:55:00,
2013-03-21 01:00:00,28.8,26.2,29.70,WSW,252,4.0,7.0,90,0.00,,BKN070,0.00,VWS V14.00,2013-03-21 05:00:00,
2013-03-21 01:05:00,28.8,26.2,29.70,West,279,0.0,8.0,90,0.00,,BKN070,0.00,VWS V14.00,2013-03-21 05:05:00,
2013-03-21 01:10:00,28.7,26.1,29.70,SSW,210,3.0,9.0,90,0.00,,BKN070,0.00,VWS V14.00,2013-03-21 05:10:00,
2013-03-21 01:15:00,28.7,26.1,29.70,West,275,1.0,9.0,90,0.00,,FEW070,0.00,VWS V14.00,2013-03-21 05:15:00,
2013-03-21 01:20:00,28.8,26.0,29.70,NW,323,4.0,9.0,89,0.00,,FEW070,0.00,VWS V14.00,2013-03-21 05:20:00,
2013-03-21 01:25:00,28.8,26.0,29.70,WSW,246,4.0,9.0,89,0.00,,FEW070,0.00,VWS V14.00,2013-03-21 05:25:00,
2013-03-21 01:30:00,29.0,25.9,29.70,SW,230,3.0,7.0,88,0.00,,FEW070,0.00,VWS V14.00,2013-03-21 05:30:00,
2013-03-21 01:35:00,29.0,25.9,29.70,WSW,252,0.0,7.0,88,0.00,,FEW070,0.00,VWS V14.00,2013-03-21 05:35:00,
2013-03-21 01:40:00,28.8,26.0,29.70,WNW,290,3.0,10.0,89,0.00,,FEW070,0.00,VWS V14.00,2013-03-21 05:40:00,
2013-03-21 01:45:00,28.7,25.6,29.70,West,269,3.0,10.0,88,0.00,,FEW070,0.00,VWS V14.00,2013-03-21 05:45:00,
2013-03-21 01:50:00,28.6,25.8,29.70,SSW,209,3.0,10.0,89,0.00,,FEW070,0.00,VWS V14.00,2013-03-21 05:50:00,
2013-03-21 01:55:00,28.6,25.5,29.70,SSW,205,6.0,10.0,88,0.00,,FEW070,0.00,VWS V14.00,2013-03-21 05:55:00,
2013-03-21 02:00:00,28.6,25.5,29.70,SSW,209,4.0,8.0,88,0.00,,CLR,0.00,VWS V14.00,2013-03-21 06:00:00,
2013-03-21 02:05:00,28.6,25.5,29.70,SW,224,1.0,9.0,88,0.00,,CLR,0.00,VWS V14.00,2013-03-21 06:05:00,
2013-03-21 02:10:00,28.5,25.7,29.70,WNW,282,7.0,9.0,89,0.00,,CLR,0.00,VWS V14.00,2013-03-21 06:10:00,
2013-03-21 02:15:00,28.4,25.6,29.70,SW,232,0.0,9.0,89,0.00,,CLR,0.00,VWS V14.00,2013-03-21 06:15:00,
2013-03-21 02:20:00,28.3,25.5,29.70,WNW,299,0.0,9.0,89,0.00,,CLR,0.00,VWS V14.00,2013-03-21 06:20:00,
2013-03-21 02:25:00,28.2,25.4,29.70,WSW,250,1.0,9.0,89,0.00,,CLR,0.00,VWS V14.00,2013-03-21 06:25:00,
2013-03-21 02:30:00,28.1,25.3,29.70,SSW,197,7.0,7.0,89,0.00,,CLR,0.00,VWS V14.00,2013-03-21 06:30:00,
2013-03-21 02:35:00,28.0,25.2,29.71,WSW,239,2.0,7.0,89,0.00,,CLR,0.00,VWS V14.00,2013-03-21 06:35:00,
2013-03-21 02:40:00,27.9,25.1,29.71,South,188,9.0,9.0,89,0.00,,CLR,0.00,VWS V14.00,2013-03-21 06:40:00,
2013-03-21 02:45:00,27.8,24.7,29.71,West,267,2.0,9.0,88,0.00,,CLR,0.00,VWS V14.00,2013-03-21 06:45:00,
2013-03-21 02:50:00,27.8,24.7,29.71,SW,234,2.0,9.0,88,0.00,,CLR,0.00,VWS V14.00,2013-03-21 06:50:00,
2013-03-21 02:55:00,27.6,24.8,29.71,West,278,2.0,9.0,89,0.00,,CLR,0.00,VWS V14.00,2013-03-21 06:55:00,
2013-03-21 03:00:00,27.5,24.7,29.71,SW,228,2.0,7.0,89,0.00,,CLR,0.00,VWS V14.00,2013-03-21 07:00:00,
2013-03-21 03:05:00,27.4,24.6,29.71,NW,308,5.0,7.0,89,0.00,,CLR,0.00,VWS V14.00,2013-03-21 07:05:00,
2013-03-21 03:10:00,27.3,24.5,29.70,SSE,164,2.0,7.0,89,0.00,,CLR,0.00,VWS V14.00,2013-03-21 07:10:00,
2013-03-21 03:15:00,27.2,24.4,29.70,WNW,286,0.0,7.0,89,0.00,,CLR,0.00,VWS V14.00,2013-03-21 07:15:00,
2013-03-21 03:20:00,27.1,24.3,29.70,West,268,1.0,7.0,89,0.00,,CLR,0.00,VWS V14.00,2013-03-21 07:20:00,
2013-03-21 03:25:00,27.0,24.5,29.70,South,191,1.0,10.0,90,0.00,,CLR,0.00,VWS V14.00,2013-03-21 07:25:00,
2013-03-21 03:30:00,26.9,24.1,29.70,West,275,2.0,6.0,89,0.00,,CLR,0.00,VWS V14.00,2013-03-21 07:30:00,
2013-03-21 03:35:00,26.9,24.4,29.70,WNW,284,2.0,6.0,90,0.00,,CLR,0.00,VWS V14.00,2013-03-21 07:35:00,
2013-03-21 03:40:00,26.8,24.3,29.70,West,272,0.0,9.0,90,0.00,,CLR,0.00,VWS V14.00,2013-03-21 07:40:00,
2013-03-21 03:45:00,26.6,24.1,29.70,WSW,241,1.0,9.0,90,0.00,,CLR,0.00,VWS V14.00,2013-03-21 07:45:00,
2013-03-21 03:50:00,26.5,24.0,29.70,NNW,331,2.0,9.0,90,0.00,,CLR,0.00,VWS V14.00,2013-03-21 07:50:00,
2013-03-21 03:55:00,26.4,23.9,29.70,SSW,211,3.0,9.0,90,0.00,,CLR,0.00,VWS V14.00,2013-03-21 07:55:00,
2013-03-21 04:00:00,26.4,23.6,29.70,SW,229,3.0,7.0,89,0.00,,CLR,0.00,VWS V14.00,2013-03-21 08:00:00,
2013-03-21 04:05:00,26.4,23.6,29.70,South,182,2.0,7.0,89,0.00,,CLR,0.00,VWS V14.00,2013-03-21 08:05:00,
2013-03-21 04:10:00,26.4,23.6,29.70,WSW,243,0.0,7.0,89,0.00,,CLR,0.00,VWS V14.00,2013-03-21 08:10:00,
2013-03-21 04:15:00,26.3,23.5,29.70,WNW,292,6.0,7.0,89,0.00,,CLR,0.00,VWS V14.00,2013-03-21 08:15:00,
2013-03-21 04:20:00,26.4,23.6,29.70,West,265,0.0,7.0,89,0.00,,CLR,0.00,VWS V14.00,2013-03-21 08:20:00,
2013-03-21 04:25:00,26.4,23.6,29.71,NE,38,0.0,7.0,89,0.00,,CLR,0.00,VWS V14.00,2013-03-21 08:25:00,
2013-03-21 04:30:00,26.3,23.5,29.71,NW,326,1.0,5.0,89,0.00,,CLR,0.00,VWS V14.00,2013-03-21 08:30:00,
2013-03-21 04:35:00,26.2,23.4,29.71,South,187,1.0,5.0,89,0.00,,CLR,0.00,VWS V14.00,2013-03-21 08:35:00,
2013-03-21 04:40:00,26.1,23.3,29.71,WSW,248,0.0,5.0,89,0.00,,CLR,0.00,VWS V14.00,2013-03-21 08:40:00,
2013-03-21 04:45:00,26.1,23.3,29.71,WSW,240,2.0,6.0,89,0.00,,CLR,0.00,VWS V14.00,2013-03-21 08:45:00,
2013-03-21 04:50:00,26.0,23.2,29.71,WSW,254,4.0,6.0,89,0.00,,CLR,0.00,VWS V14.00,2013-03-21 08:50:00,
2013-03-21 04:55:00,26.0,23.2,29.72,WSW,242,1.0,6.0,89,0.00,,CLR,0.00,VWS V14.00,2013-03-21 08:55:00,
2013-03-21 05:00:00,26.0,23.2,29.71,West,267,1.0,3.0,89,0.00,,CLR,0.00,VWS V14.00,2013-03-21 09:00:00,
2013-03-21 05:05:00,25.9,23.1,29.71,WSW,257,3.0,5.0,89,0.00,,CLR,0.00,VWS V14.00,2013-03-21 09:05:00,
2013-03-21 05:10:00,25.9,23.4,29.71,WSW,242,4.0,5.0,90,0.00,,CLR,0.00,VWS V14.00,2013-03-21 09:10:00,
2013-03-21 05:15:00,25.8,23.3,29.71,WSW,242,2.0,5.0,90,0.00,,CLR,0.00,VWS V14.00,2013-03-21 09:15:00,
2013-03-21 05:20:00,25.7,23.2,29.71,WSW,242,1.0,5.0,90,0.00,,CLR,0.00,VWS V14.00,2013-03-21 09:20:00,
2013-03-21 05:25:00,25.5,23.0,29.72,SSW,209,0.0,5.0,90,0.00,,CLR,0.00,VWS V14.00,2013-03-21 09:25:00,
2013-03-21 05:30:00,25.4,22.9,29.72,WSW,244,0.0,5.0,90,0.00,,CLR,0.00,VWS V14.00,2013-03-21 09:30:00,
2013-03-21 05:35:00,25.2,22.7,29.72,WSW,257,0.0,5.0,90,0.00,,CLR,0.00,VWS V14.00,2013-03-21 09:35:00,
2013-03-21 05:40:00,25.1,22.6,29.71,West,275,2.0,5.0,90,0.00,,CLR,0.00,VWS V14.00,2013-03-21 09:40:00,
2013-03-21 05:45:00,25.0,22.5,29.71,WNW,302,3.0,5.0,90,0.00,,CLR,0.00,VWS V14.00,2013-03-21 09:45:00,
2013-03-21 05:50:00,25.0,22.5,29.72,West,272,0.0,5.0,90,0.00,,CLR,0.00,VWS V14.00,2013-03-21 09:50:00,
2013-03-21 05:55:00,25.0,22.5,29.72,West,259,1.0,5.0,90,0.00,,CLR,0.00,VWS V14.00,2013-03-21 09:55:00,
2013-03-21 06:00:00,25.0,22.5,29.72,WSW,245,0.0,3.0,90,0.00,,CLR,0.00,VWS V14.00,2013-03-21 10:00:00,
2013-03-21 06:05:00,24.9,22.4,29.72,SW,230,2.0,3.0,90,0.00,,CLR,0.00,VWS V14.00,2013-03-21 10:05:00,
2013-03-21 06:10:00,24.9,22.6,29.72,West,277,0.0,3.0,91,0.00,,CLR,0.00,VWS V14.00,2013-03-21 10:10:00,
2013-03-21 06:15:00,24.7,22.5,29.72,West,277,0.0,3.0,91,0.00,,CLR,0.00,VWS V14.00,2013-03-21 10:15:00,
2013-03-21 06:20:00,24.5,22.2,29.72,WSW,239,0.0,4.0,91,0.00,,CLR,0.00,VWS V14.00,2013-03-21 10:20:00,
2013-03-21 06:25:00,24.4,22.2,29.72,SW,225,1.0,4.0,91,0.00,,CLR,0.00,VWS V14.00,2013-03-21 10:25:00,
2013-03-21 06:30:00,24.3,22.1,29.72,SW,225,0.0,0.0,91,0.00,,CLR,0.00,VWS V14.00,2013-03-21 10:30:00,
2013-03-21 06:40:00,24.3,22.1,29.72,SW,225,0.0,2.0,91,0.00,,CLR,0.00,VWS V14.00,2013-03-21 10:40:00,
2013-03-21 06:45:00,23.8,21.6,29.72,WSW,239,0.0,2.0,91,0.00,,CLR,0.00,VWS V14.00,2013-03-21 10:45:00,
2013-03-21 06:50:00,23.6,21.4,29.72,WSW,239,0.0,2.0,91,0.00,,CLR,0.00,VWS V14.00,2013-03-21 10:50:00,
2013-03-21 06:55:00,23.4,21.4,29.72,WSW,239,0.0,2.0,92,0.00,,CLR,0.00,VWS V14.00,2013-03-21 10:55:00,
2013-03-21 07:00:00,23.1,21.1,29.72,WSW,239,0.0,1.0,92,0.00,,CLR,0.00,VWS V14.00,2013-03-21 11:00:00,
2013-03-21 07:05:00,22.8,20.8,29.73,WSW,239,1.0,1.0,92,0.00,,CLR,0.00,VWS V14.00,2013-03-21 11:05:00,
2013-03-21 07:10:00,22.6,20.6,29.73,WSW,239,0.0,2.0,92,0.00,,CLR,0.00,VWS V14.00,2013-03-21 11:10:00,
2013-03-21 07:15:00,22.6,20.6,29.73,WSW,239,0.0,2.0,92,0.00,,CLR,0.00,VWS V14.00,2013-03-21 11:15:00,
2013-03-21 07:20:00,22.5,20.5,29.73,WSW,238,0.0,2.0,92,0.00,,CLR,0.00,VWS V14.00,2013-03-21 11:20:00,
2013-03-21 07:25:00,22.5,20.5,29.73,WSW,238,0.0,2.0,92,0.00,,CLR,0.00,VWS V14.00,2013-03-21 11:25:00,
2013-03-21 07:30:00,22.6,20.6,29.73,WSW,238,0.0,0.0,92,0.00,,CLR,0.00,VWS V14.00,2013-03-21 11:30:00,
2013-03-21 07:35:00,22.9,21.2,29.73,SSW,192,0.0,4.0,93,0.00,,CLR,0.00,VWS V14.00,2013-03-21 11:35:00,
2013-03-21 07:40:00,23.2,21.5,29.73,SSW,192,0.0,4.0,93,0.00,,CLR,0.00,VWS V14.00,2013-03-21 11:40:00,
2013-03-21 07:45:00,23.6,21.9,29.73,SSW,192,0.0,4.0,93,0.00,,CLR,0.00,VWS V14.00,2013-03-21 11:45:00,
2013-03-21 07:50:00,24.2,22.5,29.73,SSW,192,0.0,4.0,93,0.00,,CLR,0.00,VWS V14.00,2013-03-21 11:50:00,
2013-03-21 07:55:00,24.9,23.2,29.73,NW,323,1.0,4.0,93,0.00,,CLR,0.00,VWS V14.00,2013-03-21 11:55:00,
2013-03-21 08:00:00,25.6,23.9,29.73,WNW,292,3.0,3.0,93,0.00,,CLR,0.00,VWS V14.00,2013-03-21 12:00:00,
2013-03-21 08:05:00,26.3,24.3,29.73,West,267,2.0,3.0,92,0.00,,CLR,0.00,VWS V14.00,2013-03-21 12:05:00,
2013-03-21 08:10:00,26.8,24.8,29.73,SW,224,3.0,4.0,92,0.00,,CLR,0.00,VWS V14.00,2013-03-21 12:10:00,
2013-03-21 08:15:00,27.1,25.1,29.73,SW,224,0.0,4.0,92,0.00,,CLR,0.00,VWS V14.00,2013-03-21 12:15:00,
2013-03-21 08:20:00,27.4,24.9,29.73,SW,224,0.0,4.0,90,0.00,,CLR,0.00,VWS V14.00,2013-03-21 12:20:00,
2013-03-21 08:25:00,27.9,25.4,29.73,SW,224,0.0,4.0,90,0.00,,CLR,0.00,VWS V14.00,2013-03-21 12:25:00,
2013-03-21 08:30:00,28.8,26.0,29.73,SW,224,0.0,2.0,89,0.00,,CLR,0.00,VWS V14.00,2013-03-21 12:30:00,
2013-03-21 08:35:00,29.4,26.6,29.73,SW,233,0.0,6.0,89,0.00,,CLR,0.00,VWS V14.00,2013-03-21 12:35:00,
2013-03-21 08:40:00,29.9,26.5,29.73,West,269,5.0,6.0,87,0.00,,CLR,0.00,VWS V14.00,2013-03-21 12:40:00,
2013-03-21 08:45:00,30.0,26.6,29.73,WNW,289,5.0,6.0,87,0.00,,CLR,0.00,VWS V14.00,2013-03-21 12:45:00,
2013-03-21 08:50:00,30.5,26.8,29.73,WNW,296,2.0,6.0,86,0.01,,CLR,0.01,VWS V14.00,2013-03-21 12:50:00,
2013-03-21 08:55:00,30.8,26.5,29.73,South,169,2.0,6.0,84,0.01,,CLR,0.01,VWS V14.00,2013-03-21 12:55:00,
2013-03-21 09:00:00,31.1,26.5,29.73,SSW,192,1.0,5.0,83,0.01,,CLR,0.01,VWS V14.00,2013-03-21 13:00:00,
2013-03-21 09:05:00,30.9,26.6,29.73,West,272,1.0,6.0,84,0.01,,FEW250,0.01,VWS V14.00,2013-03-21 13:05:00,
2013-03-21 09:10:00,30.9,26.9,29.73,WNW,288,1.0,6.0,85,0.01,,FEW250,0.01,VWS V14.00,2013-03-21 13:10:00,
2013-03-21 09:15:00,30.7,26.7,29.73,West,264,2.0,6.0,85,0.01,,FEW250,0.01,VWS V14.00,2013-03-21 13:15:00,
2013-03-21 09:20:00,30.6,26.4,29.73,SW,236,1.0,6.0,84,0.01,,FEW250,0.01,VWS V14.00,2013-03-21 13:20:00,
2013-03-21 09:25:00,31.0,27.0,29.73,West,263,0.0,6.0,85,0.01,,FEW250,0.01,VWS V14.00,2013-03-21 13:25:00,
2013-03-21 09:30:00,31.7,27.7,29.73,West,260,6.0,6.0,85,0.01,,FEW250,0.01,VWS V14.00,2013-03-21 13:30:00,
2013-03-21 09:35:00,32.3,28.0,29.72,SSW,192,3.0,7.0,84,0.01,,FEW250,0.01,VWS V14.00,2013-03-21 13:35:00,
2013-03-21 09:40:00,33.2,27.7,29.72,SSW,199,2.0,8.0,80,0.01,,FEW250,0.01,VWS V14.00,2013-03-21 13:40:00,
2013-03-21 09:45:00,33.7,28.8,29.72,WNW,296,4.0,8.0,82,0.02,,FEW250,0.02,VWS V14.00,2013-03-21 13:45:00,
2013-03-21 09:50:00,33.6,28.4,29.72,SW,234,2.0,8.0,81,0.02,,FEW250,0.02,VWS V14.00,2013-03-21 13:50:00,
2013-03-21 09:55:00,33.5,28.3,29.72,WSW,246,2.0,8.0,81,0.02,,FEW250,0.02,VWS V14.00,2013-03-21 13:55:00,
2013-03-21 10:00:00,33.5,28.0,29.72,West,271,2.0,5.0,80,0.01,,FEW250,0.02,VWS V14.00,2013-03-21 14:00:00,
2013-03-21 10:05:00,34.3,28.5,29.72,SSW,202,4.0,7.0,79,0.01,,FEW250,0.02,VWS V14.00,2013-03-21 14:05:00,
2013-03-21 10:10:00,34.6,29.1,29.72,WSW,258,0.0,7.0,80,0.01,,FEW250,0.02,VWS V14.00,2013-03-21 14:10:00,
2013-03-21 10:15:00,34.9,29.7,29.72,South,182,5.0,7.0,81,0.02,,FEW250,0.03,VWS V14.00,2013-03-21 14:15:00,
2013-03-21 10:20:00,35.8,29.6,29.72,WSW,246,0.0,7.0,78,0.02,,FEW250,0.03,VWS V14.00,2013-03-21 14:20:00,
2013-03-21 10:25:00,36.4,29.6,29.71,WSW,239,4.0,7.0,76,0.02,,FEW250,0.03,VWS V14.00,2013-03-21 14:25:00,
2013-03-21 10:30:00,36.2,29.0,29.71,WNW,286,0.0,7.0,75,0.02,,FEW250,0.03,VWS V14.00,2013-03-21 14:30:00,
2013-03-21 10:35:00,36.5,29.3,29.71,NW,313,2.0,7.0,75,0.03,,FEW250,0.04,VWS V14.00,2013-03-21 14:35:00,
2013-03-21 10:40:00,36.3,28.8,29.70,WSW,237,5.0,9.0,74,0.03,,FEW250,0.04,VWS V14.00,2013-03-21 14:40:00,
2013-03-21 10:45:00,35.9,28.8,29.70,SW,223,3.0,10.0,75,0.03,,FEW250,0.04,VWS V14.00,2013-03-21 14:45:00,
2013-03-21 10:50:00,35.8,28.3,29.70,SSW,205,7.0,10.0,74,0.04,,FEW250,0.05,VWS V14.00,2013-03-21 14:50:00,
2013-03-21 10:55:00,36.0,28.5,29.70,West,264,4.0,10.0,74,0.04,,FEW250,0.05,VWS V14.00,2013-03-21 14:55:00,
2013-03-21 11:00:00,36.3,28.5,29.70,SSE,149,2.0,4.0,73,0.03,,SCT250,0.05,VWS V14.00,2013-03-21 15:00:00,
2013-03-21 11:05:00,35.8,21.2,29.70,SW,230,1.0,6.0,55,0.04,,SCT250,0.06,VWS V14.00,2013-03-21 15:05:00,
2013-03-21 11:10:00,35.5,19.6,29.70,West,263,1.0,6.0,52,0.04,,SCT250,0.06,VWS V14.00,2013-03-21 15:10:00,
2013-03-21 11:15:00,35.6,19.7,29.70,South,182,3.0,6.0,52,0.04,,SCT250,0.06,VWS V14.00,2013-03-21 15:15:00,
2013-03-21 11:20:00,35.5,19.2,29.70,SW,229,1.0,7.0,51,0.05,,SCT250,0.07,VWS V14.00,2013-03-21 15:20:00,
2013-03-21 11:25:00,35.6,20.2,29.70,SE,132,1.0,7.0,53,0.05,,SCT250,0.07,VWS V14.00,2013-03-21 15:25:00,
2013-03-21 11:30:00,36.0,20.1,29.70,West,279,3.0,6.0,52,0.04,,SCT250,0.07,VWS V14.00,2013-03-21 15:30:00,
2013-03-21 11:35:00,35.9,18.1,29.70,SW,221,2.0,6.0,48,0.05,,SCT250,0.08,VWS V14.00,2013-03-21 15:35:00,
2013-03-21 11:40:00,36.6,19.7,29.70,West,277,2.0,6.0,50,0.05,,SCT250,0.08,VWS V14.00,2013-03-21 15:40:00,
2013-03-21 11:45:00,37.1,19.7,29.70,SW,224,0.0,6.0,49,0.06,,SCT250,0.09,VWS V14.00,2013-03-21 15:45:00,
2013-03-21 11:50:00,36.5,18.7,29.69,WSW,253,2.0,8.0,48,0.06,,SCT250,0.09,VWS V14.00,2013-03-21 15:50:00,
2013-03-21 11:55:00,36.4,18.1,29.69,SW,227,0.0,8.0,47,0.06,,SCT250,0.09,VWS V14.00,2013-03-21 15:55:00,
2013-03-21 12:00:00,36.6,17.3,29.69,SW,226,6.0,6.0,45,0.04,,SCT250,0.09,VWS V14.00,2013-03-21 16:00:00,
2013-03-21 12:05:00,36.2,16.9,29.69,SSW,207,8.0,8.0,45,0.04,,SCT250,0.09,VWS V14.00,2013-03-21 16:05:00,
2013-03-21 12:10:00,36.8,16.4,29.69,ESE,117,1.0,8.0,43,0.05,,SCT250,0.10,VWS V14.00,2013-03-21 16:10:00,
2013-03-21 12:15:00,36.5,15.6,29.69,SSW,194,4.0,8.0,42,0.05,,SCT250,0.10,VWS V14.00,2013-03-21 16:15:00,
2013-03-21 12:20:00,36.4,17.6,29.69,ESE,105,3.0,8.0,46,0.05,,SCT250,0.10,VWS V14.00,2013-03-21 16:20:00,
2013-03-21 12:25:00,36.7,16.3,29.69,West,267,5.0,8.0,43,0.05,,SCT250,0.10,VWS V14.00,2013-03-21 16:25:00,
2013-03-21 12:30:00,36.6,15.7,29.69,SW,214,3.0,6.0,42,0.03,,SCT250,0.10,VWS V14.00,2013-03-21 16:30:00,
2013-03-21 12:35:00,36.7,16.3,29.69,SSW,194,2.0,9.0,43,0.04,,SCT250,0.11,VWS V14.00,2013-03-21 16:35:00,
2013-03-21 12:40:00,37.0,14.9,29.69,ENE,68,3.0,9.0,40,0.04,,SCT250,0.11,VWS V14.00,2013-03-21 16:40:00,
2013-03-21 12:45:00,37.1,14.4,29.68,South,185,2.0,9.0,39,0.04,,SCT250,0.11,VWS V14.00,2013-03-21 16:45:00,
2013-03-21 12:50:00,37.0,15.5,29.68,ESE,106,2.0,9.0,41,0.05,,SCT250,0.12,VWS V14.00,2013-03-21 16:50:00,
2013-03-21 12:55:00,37.1,16.7,29.67,SE,139,2.0,9.0,43,0.05,,SCT250,0.12,VWS V14.00,2013-03-21 16:55:00,
2013-03-21 13:00:00,37.5,16.5,29.67,SSW,199,3.0,7.0,42,0.03,,SCT250,0.12,VWS V14.00,2013-03-21 17:00:00,
2013-03-21 13:05:00,37.4,15.9,29.67,South,186,1.0,8.0,41,0.04,,SCT250,0.13,VWS V14.00,2013-03-21 17:05:00,
2013-03-21 13:10:00,37.3,13.4,29.67,East,98,3.0,8.0,37,0.04,,SCT250,0.13,VWS V14.00,2013-03-21 17:10:00,
2013-03-21 13:15:00,37.0,13.8,29.67,ESE,108,1.0,8.0,38,0.04,,SCT250,0.13,VWS V14.00,2013-03-21 17:15:00,
2013-03-21 13:20:00,37.2,19.3,29.67,East,98,3.0,8.0,48,0.04,,SCT250,0.13,VWS V14.00,2013-03-21 17:20:00,
2013-03-21 13:25:00,36.6,20.6,29.67,SW,217,3.0,8.0,52,0.05,,SCT250,0.14,VWS V14.00,2013-03-21 17:25:00,
2013-03-21 13:30:00,36.4,20.5,29.66,SSE,150,1.0,5.0,52,0.04,,SCT250,0.14,VWS V14.00,2013-03-21 17:30:00,
2013-03-21 13:35:00,37.2,20.3,29.66,West,273,1.0,10.0,50,0.04,,SCT250,0.14,VWS V14.00,2013-03-21 17:35:00,
2013-03-21 13:40:00,36.6,18.8,29.65,SE,128,3.0,10.0,48,0.04,,SCT250,0.14,VWS V14.00,2013-03-21 17:40:00,
2013-03-21 13:45:00,37.0,17.1,29.65,WNW,284,1.0,10.0,44,0.05,,SCT250,0.15,VWS V14.00,2013-03-21 17:45:00,
2013-03-21 13:50:00,37.0,16.6,29.65,SW,234,1.0,10.0,43,0.05,,SCT250,0.15,VWS V14.00,2013-03-21 17:50:00,
2013-03-21 13:55:00,36.4,14.4,29.65,SSW,196,1.0,10.0,40,0.05,,SCT250,0.15,VWS V14.00,2013-03-21 17:55:00,
2013-03-21 14:00:00,36.1,16.3,29.65,ENE,65,0.0,4.0,44,0.03,,SCT250,0.15,VWS V14.00,2013-03-21 18:00:00,
2013-03-21 14:05:00,36.4,13.8,29.65,SW,224,2.0,7.0,39,0.03,,FEW060,0.15,VWS V14.00,2013-03-21 18:05:00,
2013-03-21 14:10:00,36.4,16.0,29.65,SW,223,3.0,7.0,43,0.03,,FEW060,0.15,VWS V14.00,2013-03-21 18:10:00,
2013-03-21 14:15:00,36.4,16.6,29.64,SSE,163,5.0,7.0,44,0.04,,FEW060,0.16,VWS V14.00,2013-03-21 18:15:00,
2013-03-21 14:20:00,36.7,12.3,29.64,SW,231,0.0,7.0,36,0.04,,FEW060,0.16,VWS V14.00,2013-03-21 18:20:00,
2013-03-21 14:25:00,36.5,12.7,29.64,SSW,198,6.0,7.0,37,0.04,,FEW060,0.16,VWS V14.00,2013-03-21 18:25:00,
2013-03-21 14:30:00,36.6,12.8,29.63,West,280,0.0,4.0,37,0.02,,FEW060,0.16,VWS V14.00,2013-03-21 18:30:00,
2013-03-21 14:35:00,36.8,13.6,29.63,South,171,3.0,6.0,38,0.02,,FEW060,0.16,VWS V14.00,2013-03-21 18:35:00,
2013-03-21 14:40:00,36.8,13.6,29.63,SW,230,0.0,7.0,38,0.02,,FEW060,0.16,VWS V14.00,2013-03-21 18:40:00,
2013-03-21 14:45:00,36.9,14.3,29.63,SW,215,2.0,8.0,39,0.02,,FEW060,0.16,VWS V14.00,2013-03-21 18:45:00,
2013-03-21 14:50:00,37.4,14.7,29.63,SSW,205,3.0,8.0,39,0.03,,FEW060,0.17,VWS V14.00,2013-03-21 18:50:00,
2013-03-21 14:55:00,37.4,14.7,29.63,WSW,238,2.0,8.0,39,0.03,,FEW060,0.17,VWS V14.00,2013-03-21 18:55:00,
2013-03-21 15:00:00,37.3,15.2,29.63,South,184,2.0,4.0,40,0.02,,FEW060,0.17,VWS V14.00,2013-03-21 19:00:00,
2013-03-21 15:05:00,36.9,16.5,29.62,SE,146,1.0,5.0,43,0.02,,SCT250,0.17,VWS V14.00,2013-03-21 19:05:00,
2013-03-21 15:10:00,37.2,17.8,29.62,South,185,4.0,5.0,45,0.02,,SCT250,0.17,VWS V14.00,2013-03-21 19:10:00,
2013-03-21 15:15:00,37.4,18.0,29.62,SE,142,1.0,5.0,45,0.02,,SCT250,0.17,VWS V14.00,2013-03-21 19:15:00,
2013-03-21 15:20:00,36.5,19.6,29.62,ENE,67,4.0,5.0,50,0.02,,SCT250,0.17,VWS V14.00,2013-03-21 19:20:00,
2013-03-21 15:25:00,35.8,18.5,29.62,East,92,5.0,10.0,49,0.02,,SCT250,0.17,VWS V14.00,2013-03-21 19:25:00,
2013-03-21 15:30:00,35.9,20.0,29.62,SW,221,6.0,7.0,52,0.01,,SCT250,0.17,VWS V14.00,2013-03-21 19:30:00,
2013-03-21 15:35:00,36.1,21.1,29.62,SE,124,1.0,7.0,54,0.02,,SCT250,0.18,VWS V14.00,2013-03-21 19:35:00,
2013-03-21 15:40:00,35.9,20.9,29.61,East,99,0.0,7.0,54,0.02,,SCT250,0.18,VWS V14.00,2013-03-21 19:40:00,
2013-03-21 15:45:00,35.9,20.9,29.61,ESE,112,3.0,7.0,54,0.02,,SCT250,0.18,VWS V14.00,2013-03-21 19:45:00,
2013-03-21 15:50:00,35.7,20.7,29.61,SSW,198,7.0,7.0,54,0.02,,SCT250,0.18,VWS V14.00,2013-03-21 19:50:00,
2013-03-21 15:55:00,35.7,20.7,29.60,SW,234,1.0,7.0,54,0.02,,SCT250,0.18,VWS V14.00,2013-03-21 19:55:00,
2013-03-21 16:00:00,35.2,19.8,29.60,ESE,114,3.0,8.0,53,0.01,,SCT250,0.18,VWS V14.00,2013-03-21 20:00:00,
2013-03-21 16:05:00,35.4,20.4,29.60,SSE,167,1.0,8.0,54,0.01,,SCT250,0.18,VWS V14.00,2013-03-21 20:05:00,
2013-03-21 16:10:00,35.5,19.6,29.60,SSE,153,0.0,8.0,52,0.01,,SCT250,0.18,VWS V14.00,2013-03-21 20:10:00,
2013-03-21 16:15:00,35.5,19.6,29.60,SE,136,0.0,8.0,52,0.01,,SCT250,0.18,VWS V14.00,2013-03-21 20:15:00,
2013-03-21 16:20:00,35.2,19.4,29.60,SE,130,1.0,8.0,52,0.01,,SCT250,0.18,VWS V14.00,2013-03-21 20:20:00,
2013-03-21 16:25:00,35.0,20.5,29.59,SSE,159,1.0,8.0,55,0.01,,SCT250,0.18,VWS V14.00,2013-03-21 20:25:00,
2013-03-21 16:30:00,35.1,19.3,29.59,SSW,200,2.0,4.0,52,0.01,,SCT250,0.18,VWS V14.00,2013-03-21 20:30:00,
2013-03-21 16:35:00,35.6,20.2,29.59,SE,145,2.0,5.0,53,0.01,,SCT250,0.18,VWS V14.00,2013-03-21 20:35:00,
2013-03-21 16:40:00,35.3,20.8,29.59,SW,217,4.0,6.0,55,0.01,,SCT250,0.18,VWS V14.00,2013-03-21 20:40:00,
2013-03-21 16:45:00,35.1,21.4,29.59,SSE,161,0.0,6.0,57,0.01,,SCT250,0.18,VWS V14.00,2013-03-21 20:45:00,
2013-03-21 16:50:00,35.1,21.8,29.59,SSE,167,3.0,6.0,58,0.01,,SCT250,0.18,VWS V14.00,2013-03-21 20:50:00,
2013-03-21 16:55:00,34.9,22.0,29.59,South,176,0.0,6.0,59,0.01,,SCT250,0.18,VWS V14.00,2013-03-21 20:55:00,
2013-03-21 17:00:00,34.7,21.9,29.59,South,182,0.0,5.0,59,0.00,,SCT150,0.18,VWS V14.00,2013-03-21 21:00:00,
2013-03-21 17:05:00,34.6,22.2,29.59,SSE,165,2.0,5.0,60,0.00,,SCT150,0.18,VWS V14.00,2013-03-21 21:05:00,
2013-03-21 17:10:00,34.4,22.4,29.59,ESE,103,2.0,5.0,61,0.01,,SCT150,0.19,VWS V14.00,2013-03-21 21:10:00,
2013-03-21 17:15:00,34.4,22.4,29.59,SSE,161,2.0,5.0,61,0.01,,SCT150,0.19,VWS V14.00,2013-03-21 21:15:00,
2013-03-21 17:20:00,34.3,22.3,29.59,South,173,0.0,5.0,61,0.01,,SCT150,0.19,VWS V14.00,2013-03-21 21:20:00,
2013-03-21 17:25:00,34.3,22.3,29.59,ESE,121,2.0,5.0,61,0.01,,SCT150,0.19,VWS V14.00,2013-03-21 21:25:00,
2013-03-21 17:30:00,34.2,22.5,29.59,ENE,72,4.0,5.0,62,0.01,,SCT150,0.19,VWS V14.00,2013-03-21 21:30:00,
2013-03-21 17:35:00,34.3,21.9,29.60,East,80,5.0,6.0,60,0.01,,SCT150,0.19,VWS V14.00,2013-03-21 21:35:00,
2013-03-21 17:40:00,34.2,21.8,29.59,ESE,107,2.0,8.0,60,0.01,,SCT150,0.19,VWS V14.00,2013-03-21 21:40:00,
2013-03-21 17:45:00,34.1,21.3,29.59,ESE,107,2.0,8.0,59,0.01,,SCT150,0.19,VWS V14.00,2013-03-21 21:45:00,
2013-03-21 17:50:00,34.1,21.3,29.59,East,83,1.0,8.0,59,0.01,,SCT150,0.19,VWS V14.00,2013-03-21 21:50:00,
2013-03-21 17:55:00,34.0,21.6,29.59,ESE,107,1.0,8.0,60,0.01,,SCT150,0.19,VWS V14.00,2013-03-21 21:55:00,
2013-03-21 18:00:00,33.9,21.9,29.60,SSE,163,2.0,2.0,61,0.01,,SCT150,0.19,VWS V14.00,2013-03-21 22:00:00,
2013-03-21 18:05:00,33.9,22.3,29.59,ESE,121,1.0,3.0,62,0.01,,SCT150,0.19,VWS V14.00,2013-03-21 22:05:00,
2013-03-21 18:10:00,33.9,22.3,29.59,East,99,3.0,5.0,62,0.01,,SCT150,0.19,VWS V14.00,2013-03-21 22:10:00,
2013-03-21 18:15:00,33.9,22.3,29.59,ESE,111,3.0,7.0,62,0.01,,SCT150,0.19,VWS V14.00,2013-03-21 22:15:00,
2013-03-21 18:20:00,33.8,22.2,29.59,SE,128,1.0,7.0,62,0.01,,SCT150,0.19,VWS V14.00,2013-03-21 22:20:00,
2013-03-21 18:25:00,33.8,22.2,29.60,ENE,60,3.0,7.0,62,0.01,,SCT150,0.19,VWS V14.00,2013-03-21 22:25:00,
2013-03-21 18:30:00,33.7,22.5,29.60,ESE,104,2.0,3.0,63,0.00,,SCT150,0.19,VWS V14.00,2013-03-21 22:30:00,
2013-03-21 18:35:00,33.5,22.6,29.59,ESE,104,0.0,3.0,64,0.00,,SCT150,0.19,VWS V14.00,2013-03-21 22:35:00,
2013-03-21 18:40:00,33.3,22.5,29.59,ESE,104,0.0,3.0,64,0.00,,SCT150,0.19,VWS V14.00,2013-03-21 22:40:00,
2013-03-21 18:45:00,33.0,22.5,29.60,ESE,104,0.0,3.0,65,0.00,,SCT150,0.19,VWS V14.00,2013-03-21 22:45:00,
2013-03-21 18:50:00,32.5,22.4,29.60,ESE,104,0.0,3.0,66,0.00,,SCT150,0.19,VWS V14.00,2013-03-21 22:50:00,
2013-03-21 18:55:00,32.3,22.9,29.60,ESE,104,0.0,3.0,68,0.00,,SCT150,0.19,VWS V14.00,2013-03-21 22:55:00,
2013-03-21 19:00:00,31.9,23.2,29.60,ESE,104,0.0,0.0,70,0.00,,SCT150,0.19,VWS V14.00,2013-03-21 23:00:00,
2013-03-21 19:05:00,31.5,23.9,29.60,ESE,104,0.0,0.0,73,0.00,,SCT100,0.19,VWS V14.00,2013-03-21 23:05:00,
2013-03-21 19:10:00,31.0,23.7,29.59,ESE,104,0.0,0.0,74,0.00,,SCT100,0.19,VWS V14.00,2013-03-21 23:10:00,
2013-03-21 19:15:00,30.8,23.8,29.60,ESE,104,0.0,0.0,75,0.00,,SCT100,0.19,VWS V14.00,2013-03-21 23:15:00,
2013-03-21 19:20:00,30.4,23.8,29.60,ESE,104,0.0,0.0,76,0.00,,SCT100,0.19,VWS V14.00,2013-03-21 23:20:00,
2013-03-21 19:25:00,30.0,23.7,29.60,ESE,104,0.0,0.0,77,0.00,,SCT100,0.19,VWS V14.00,2013-03-21 23:25:00,
2013-03-21 19:30:00,29.8,24.1,29.60,ESE,104,0.0,0.0,79,0.00,,SCT100,0.19,VWS V14.00,2013-03-21 23:30:00,
2013-03-21 19:35:00,29.7,24.6,29.59,ESE,104,0.0,0.0,81,0.00,,SCT100,0.19,VWS V14.00,2013-03-21 23:35:00,
2013-03-21 19:40:00,29.7,24.6,29.59,ESE,104,0.0,0.0,81,0.00,,SCT100,0.19,VWS V14.00,2013-03-21 23:40:00,
2013-03-21 19:45:00,29.7,24.6,29.59,ESE,104,0.0,0.0,81,0.00,,SCT100,0.19,VWS V14.00,2013-03-21 23:45:00,
2013-03-21 19:50:00,29.7,24.3,29.60,ESE,104,0.0,0.0,80,0.00,,SCT100,0.19,VWS V14.00,2013-03-21 23:50:00,
2013-03-21 19:55:00,29.6,24.2,29.60,ESE,104,0.0,0.0,80,0.00,,SCT100,0.19,VWS V14.00,2013-03-21 23:55:00,
2013-03-21 20:00:00,29.6,24.2,29.60,ESE,104,0.0,0.0,80,0.00,,SCT100,0.19,VWS V14.00,2013-03-22 00:00:00,
2013-03-21 20:05:00,29.5,24.1,29.60,ESE,104,0.0,0.0,80,0.00,,FEW100,0.19,VWS V14.00,2013-03-22 00:05:00,
2013-03-21 20:10:00,29.3,23.9,29.60,ESE,104,0.0,0.0,80,0.00,,FEW100,0.19,VWS V14.00,2013-03-22 00:10:00,
2013-03-21 20:15:00,29.2,23.8,29.60,ESE,104,0.0,0.0,80,0.00,,FEW100,0.19,VWS V14.00,2013-03-22 00:15:00,
2013-03-21 20:20:00,29.1,23.7,29.60,ESE,104,0.0,0.0,80,0.00,,FEW100,0.19,VWS V14.00,2013-03-22 00:20:00,
2013-03-21 20:25:00,29.0,23.9,29.60,ESE,104,0.0,0.0,81,0.00,,FEW100,0.19,VWS V14.00,2013-03-22 00:25:00,
2013-03-21 20:30:00,28.8,23.7,29.60,ESE,104,0.0,0.0,81,0.00,,FEW100,0.19,VWS V14.00,2013-03-22 00:30:00,
2013-03-21 20:35:00,28.5,23.4,29.60,ESE,104,0.0,0.0,81,0.00,,FEW100,0.19,VWS V14.00,2013-03-22 00:35:00,
2013-03-21 20:40:00,28.4,23.3,29.59,ESE,104,0.0,0.0,81,0.00,,FEW100,0.19,VWS V14.00,2013-03-22 00:40:00,
2013-03-21 20:45:00,28.3,23.8,29.60,ESE,104,0.0,0.0,83,0.00,,FEW100,0.19,VWS V14.00,2013-03-22 00:45:00,
2013-03-21 20:50:00,28.1,23.6,29.59,ESE,104,0.0,0.0,83,0.00,,FEW100,0.19,VWS V14.00,2013-03-22 00:50:00,
2013-03-21 20:55:00,27.9,23.7,29.59,ESE,104,0.0,0.0,84,0.00,,FEW100,0.19,VWS V14.00,2013-03-22 00:55:00,
2013-03-21 21:00:00,27.8,23.6,29.59,ESE,104,0.0,0.0,84,0.00,,FEW100,0.19,VWS V14.00,2013-03-22 01:00:00,
2013-03-21 21:05:00,27.6,23.4,29.59,ESE,104,0.0,0.0,84,0.00,,FEW100,0.19,VWS V14.00,2013-03-22 01:05:00,
2013-03-21 21:10:00,27.5,23.3,29.59,ESE,104,0.0,0.0,84,0.00,,FEW100,0.19,VWS V14.00,2013-03-22 01:10:00,
2013-03-21 21:15:00,27.3,23.4,29.59,ESE,104,0.0,0.0,85,0.00,,FEW100,0.19,VWS V14.00,2013-03-22 01:15:00,
2013-03-21 21:20:00,27.2,23.3,29.59,ESE,104,0.0,0.0,85,0.00,,FEW100,0.19,VWS V14.00,2013-03-22 01:20:00,
2013-03-21 21:25:00,27.1,23.2,29.59,ESE,104,0.0,0.0,85,0.00,,FEW100,0.19,VWS V14.00,2013-03-22 01:25:00,
2013-03-21 21:30:00,26.9,23.3,29.59,ESE,104,0.0,0.0,86,0.00,,FEW100,0.19,VWS V14.00,2013-03-22 01:30:00,
2013-03-21 21:35:00,26.7,23.1,29.58,ESE,104,0.0,0.0,86,0.00,,FEW100,0.19,VWS V14.00,2013-03-22 01:35:00,
2013-03-21 21:40:00,26.6,23.0,29.59,ESE,104,0.0,0.0,86,0.00,,FEW100,0.19,VWS V14.00,2013-03-22 01:40:00,
2013-03-21 21:45:00,26.4,22.8,29.59,ESE,104,0.0,0.0,86,0.00,,FEW100,0.19,VWS V14.00,2013-03-22 01:45:00,
2013-03-21 21:50:00,26.2,22.6,29.59,ESE,104,0.0,0.0,86,0.00,,FEW100,0.19,VWS V14.00,2013-03-22 01:50:00,
2013-03-21 21:55:00,26.0,22.4,29.58,ESE,104,0.0,0.0,86,0.00,,FEW100,0.19,VWS V14.00,2013-03-22 01:55:00,
2013-03-21 22:00:00,25.9,22.3,29.58,ESE,104,0.0,0.0,86,0.00,,FEW100,0.19,VWS V14.00,2013-03-22 02:00:00,
2013-03-21 22:05:00,25.8,22.5,29.58,ESE,104,0.0,0.0,87,0.00,,FEW100,0.19,VWS V14.00,2013-03-22 02:05:00,
2013-03-21 22:10:00,25.6,22.3,29.58,ESE,104,0.0,0.0,87,0.00,,FEW100,0.19,VWS V14.00,2013-03-22 02:10:00,
2013-03-21 22:15:00,25.4,22.1,29.58,ESE,104,0.0,1.0,87,0.00,,FEW100,0.19,VWS V14.00,2013-03-22 02:15:00,
2013-03-21 22:20:00,25.3,22.2,29.58,ESE,104,0.0,1.0,88,0.00,,FEW100,0.19,VWS V14.00,2013-03-22 02:20:00,
2013-03-21 22:25:00,25.1,22.0,29.58,ESE,104,0.0,1.0,88,0.00,,FEW100,0.19,VWS V14.00,2013-03-22 02:25:00,
2013-03-21 22:30:00,25.0,22.0,29.58,ESE,104,0.0,0.0,88,0.00,,FEW100,0.19,VWS V14.00,2013-03-22 02:30:00,
2013-03-21 22:35:00,24.8,21.8,29.58,ESE,104,0.0,0.0,88,0.00,,FEW100,0.19,VWS V14.00,2013-03-22 02:35:00,
2013-03-21 22:40:00,24.7,21.7,29.58,ESE,104,0.0,0.0,88,0.00,,FEW100,0.19,VWS V14.00,2013-03-22 02:40:00,
2013-03-21 22:45:00,24.5,21.7,29.58,ESE,104,0.0,0.0,89,0.00,,FEW100,0.19,VWS V14.00,2013-03-22 02:45:00,
2013-03-21 22:50:00,24.4,21.4,29.58,ESE,104,0.0,0.0,88,0.00,,FEW100,0.19,VWS V14.00,2013-03-22 02:50:00,
2013-03-21 22:55:00,24.2,21.2,29.57,ESE,104,0.0,0.0,88,0.00,,FEW100,0.19,VWS V14.00,2013-03-22 02:55:00,
2013-03-21 23:00:00,24.1,21.3,29.58,ESE,104,1.0,1.0,89,0.00,,FEW100,0.19,VWS V14.00,2013-03-22 03:00:00,
2013-03-21 23:05:00,24.0,21.5,29.58,ESE,104,0.0,1.0,90,0.00,,FEW100,0.19,VWS V14.00,2013-03-22 03:05:00,
2013-03-21 23:10:00,23.9,21.4,29.58,ESE,104,0.0,1.0,90,0.00,,FEW100,0.19,VWS V14.00,2013-03-22 03:10:00,
2013-03-21 23:15:00,23.8,21.3,29.57,ESE,104,0.0,1.0,90,0.00,,FEW100,0.19,VWS V14.00,2013-03-22 03:15:00,
2013-03-21 23:20:00,23.7,21.2,29.57,ESE,104,0.0,1.0,90,0.00,,FEW100,0.19,VWS V14.00,2013-03-22 03:20:00,
2013-03-21 23:25:00,23.6,21.1,29.58,ESE,104,0.0,1.0,90,0.00,,FEW100,0.19,VWS V14.00,2013-03-22 03:25:00,
2013-03-21 23:30:00,23.5,21.0,29.58,ESE,104,0.0,0.0,90,0.00,,FEW100,0.19,VWS V14.00,2013-03-22 03:30:00,
2013-03-21 23:35:00,23.4,20.9,29.58,ESE,104,0.0,0.0,90,0.00,,FEW100,0.19,VWS V14.00,2013-03-22 03:35:00,
2013-03-21 23:40:00,23.3,21.1,29.58,ESE,104,0.0,0.0,91,0.00,,FEW100,0.19,VWS V14.00,2013-03-22 03:40:00,
2013-03-21 23:45:00,23.1,20.9,29.57,ESE,104,0.0,0.0,91,0.00,,FEW100,0.19,VWS V14.00,2013-03-22 03:45:00,
2013-03-21 23:50:00,23.1,20.9,29.57,ESE,104,0.0,0.0,91,0.00,,FEW100,0.19,VWS V14.00,2013-03-22 03:50:00,
2013-03-21 23:55:00,23.0,20.8,29.57,ESE,104,0.0,0.0,91,0.00,,FEW100,0.19,VWS V14.00,2013-03-22 03:55:00,